| time (UTC) | temp F | wind direction | speed MPH | gust MPH | rain 1hr in | rain 24hr in | rain mn in | humidity % | barometer mb |
| 20260506062027 | 62 | 72 | 0.0 | 1.0 | 0.00 | 0.00 | 0.00 | 60 | 1010.0 |
| 20260506061526 | 62 | 130 | 0.0 | 2.0 | 0.00 | 0.00 | 0.00 | 60 | 1010.1 |
| 20260506061044 | 63 | 68 | 0.0 | 2.0 | 0.00 | 0.00 | 0.00 | 60 | 1010.1 |
| 20260506060522 | 63 | 70 | 0.0 | 1.0 | 0.00 | 0.00 | 0.00 | 59 | 1010.1 |
| 20260506051037 | 64 | 131 | 0.0 | 1.0 | 0.00 | 0.00 | 0.00 | 56 | 1010.3 |
| 20260506050533 | 64 | 242 | 0.0 | 2.0 | 0.00 | 0.00 | 0.00 | 55 | 1010.3 |
| 20260506045022 | 65 | 33 | 0.0 | 1.0 | 0.00 | 0.00 | 0.00 | 55 | 1010.4 |
| 20260506044542 | 65 | 29 | 0.0 | 1.0 | 0.00 | 0.00 | 0.00 | 54 | 1010.4 |
| 20260506044021 | 65 | 246 | 0.0 | 1.0 | 0.00 | 0.00 | 0.00 | 54 | 1010.4 |
| 20260506043521 | 65 | 208 | 0.0 | 1.0 | 0.00 | 0.00 | 0.00 | 54 | 1010.4 |
| 20260506043021 | 65 | 240 | 0.0 | 1.0 | 0.00 | 0.00 | 0.00 | 54 | 1010.3 |
| 20260506042520 | 65 | 92 | 0.0 | 3.0 | 0.00 | 0.00 | 0.00 | 53 | 1010.4 |
| 20260506042020 | 65 | 203 | 0.0 | 3.0 | 0.00 | 0.00 | 0.00 | 53 | 1010.3 |
| 20260506041048 | 65 | 181 | 0.0 | 3.0 | 0.00 | 0.00 | 0.00 | 52 | 1010.4 |
| 20260506040526 | 65 | 225 | 0.0 | 1.0 | 0.00 | 0.00 | 0.00 | 53 | 1010.5 |
| 20260506040021 | 65 | 195 | 0.0 | 2.0 | 0.00 | 0.00 | 0.00 | 53 | 1010.5 |
| 20260506035513 | 65 | 155 | 0.0 | 2.0 | 0.00 | 0.00 | 0.00 | 52 | 1010.4 |
| 20260506035031 | 65 | 205 | 0.0 | 2.0 | 0.00 | 0.00 | 0.00 | 52 | 1010.4 |
| 20260506034525 | 66 | 96 | 0.0 | 2.0 | 0.00 | 0.00 | 0.00 | 51 | 1010.5 |
| 20260506034024 | 66 | 177 | 0.0 | 1.0 | 0.00 | 0.00 | 0.00 | 51 | 1010.4 |
| 20260506033525 | 66 | 208 | 0.0 | 0.0 | 0.00 | 0.00 | 0.00 | 51 | 1010.5 |
| 20260506033026 | 66 | 101 | 0.0 | 2.0 | 0.00 | 0.00 | 0.00 | 50 | 1010.4 |
| 20260506032526 | 66 | 187 | 0.0 | 2.0 | 0.00 | 0.00 | 0.00 | 50 | 1010.3 |
| 20260506032026 | 67 | 204 | 0.0 | 2.0 | 0.00 | 0.00 | 0.00 | 50 | 1010.4 |
| 20260506031526 | 67 | 149 | 0.0 | 2.0 | 0.00 | 0.00 | 0.00 | 49 | 1010.4 |
| 20260506031026 | 67 | 243 | 0.0 | 6.0 | 0.00 | 0.00 | 0.00 | 49 | 1010.4 |
| 20260506030545 | 67 | 245 | 0.0 | 6.0 | 0.00 | 0.00 | 0.00 | 49 | 1010.4 |
| 20260506030041 | 67 | 285 | 0.0 | 1.0 | 0.00 | 0.00 | 0.00 | 49 | 1010.4 |
| 20260506025518 | 67 | 257 | 0.0 | 3.0 | 0.00 | 0.00 | 0.00 | 49 | 1010.4 |
| 20260506025016 | 67 | 61 | 0.0 | 3.0 | 0.00 | 0.00 | 0.00 | 49 | 1010.3 |
| 20260506024515 | 67 | 238 | 0.0 | 2.0 | 0.00 | 0.00 | 0.00 | 48 | 1010.4 |
| 20260506024033 | 67 | 194 | 0.0 | 2.0 | 0.00 | 0.00 | 0.00 | 48 | 1010.4 |
| 20260506023550 | 68 | 214 | 0.0 | 3.0 | 0.00 | 0.00 | 0.00 | 48 | 1010.6 |
| 20260506023048 | 68 | 250 | 0.0 | 1.0 | 0.00 | 0.00 | 0.00 | 48 | 1010.5 |
| 20260506022528 | 68 | 243 | 0.0 | 1.0 | 0.00 | 0.00 | 0.00 | 48 | 1010.6 |
| 20260506022022 | 68 | 275 | 0.0 | 1.0 | 0.00 | 0.00 | 0.00 | 47 | 1010.6 |
| 20260506021519 | 68 | 242 | 0.0 | 3.0 | 0.00 | 0.00 | 0.00 | 47 | 1010.6 |
| 20260506021016 | 68 | 186 | 0.0 | 3.0 | 0.00 | 0.00 | 0.00 | 47 | 1010.5 |
| 20260506020513 | 69 | 170 | 0.0 | 2.0 | 0.00 | 0.00 | 0.00 | 46 | 1010.6 |
| 20260506020028 | 69 | 257 | 0.0 | 3.0 | 0.00 | 0.00 | 0.00 | 46 | 1010.5 |
| 20260506015528 | 69 | 198 | 1.0 | 3.0 | 0.00 | 0.00 | 0.00 | 46 | 1010.6 |
| 20260506015028 | 69 | 225 | 0.0 | 2.0 | 0.00 | 0.00 | 0.00 | 46 | 1010.5 |
| 20260506014529 | 69 | 234 | 0.0 | 2.0 | 0.00 | 0.00 | 0.00 | 46 | 1010.4 |
| 20260506014030 | 69 | 208 | 0.0 | 1.0 | 0.00 | 0.00 | 0.00 | 45 | 1010.4 |
| 20260506013512 | 69 | 226 | 0.0 | 1.0 | 0.00 | 0.00 | 0.00 | 46 | 1010.3 |
| 20260506013013 | 69 | 233 | 0.0 | 3.0 | 0.00 | 0.00 | 0.00 | 45 | 1010.3 |
| 20260506012513 | 69 | 212 | 0.0 | 3.0 | 0.00 | 0.00 | 0.00 | 45 | 1010.2 |
| 20260506012013 | 70 | 84 | 0.0 | 3.0 | 0.00 | 0.00 | 0.00 | 44 | 1010.2 |
| 20260506011513 | 70 | 170 | 0.0 | 2.0 | 0.00 | 0.00 | 0.00 | 43 | 1010.0 |
| 20260506011014 | 70 | 184 | 0.0 | 2.0 | 0.00 | 0.00 | 0.00 | 43 | 1010.0 |
| 20260506010514 | 70 | 239 | 0.0 | 3.0 | 0.00 | 0.00 | 0.00 | 43 | 1009.9 |
| 20260506010044 | 70 | 233 | 1.0 | 3.0 | 0.00 | 0.00 | 0.00 | 43 | 1009.8 |
| 20260506005520 | 70 | 68 | 0.0 | 7.0 | 0.00 | 0.00 | 0.00 | 43 | 1009.8 |
| 20260506005017 | 70 | 40 | 1.0 | 7.0 | 0.00 | 0.00 | 0.00 | 43 | 1009.8 |
| 20260506004516 | 70 | 214 | 0.0 | 3.0 | 0.00 | 0.00 | 0.00 | 43 | 1009.7 |
| 20260506004013 | 70 | 220 | 0.0 | 1.0 | 0.00 | 0.00 | 0.00 | 43 | 1009.8 |
| 20260506003530 | 71 | 87 | 0.0 | 1.0 | 0.00 | 0.00 | 0.00 | 43 | 1009.7 |
| 20260506003028 | 71 | 248 | 0.0 | 1.0 | 0.00 | 0.00 | 0.00 | 43 | 1009.6 |
| 20260506002528 | 71 | 215 | 0.0 | 0.0 | 0.00 | 0.00 | 0.00 | 43 | 1009.5 |
| 20260506002028 | 71 | 218 | 0.0 | 0.0 | 0.00 | 0.00 | 0.00 | 43 | 1009.5 |
| 20260506001547 | 71 | 215 | 0.0 | 0.0 | 0.00 | 0.00 | 0.00 | 43 | 1009.5 |
| 20260506001024 | 71 | 214 | 0.0 | 0.0 | 0.00 | 0.00 | 0.00 | 44 | 1009.4 |
| 20260506000523 | 71 | 256 | 0.0 | 0.0 | 0.00 | 0.00 | 0.00 | 43 | 1009.4 |
| 20260506000020 | 71 | 281 | 0.0 | 0.0 | 0.00 | 0.00 | 0.00 | 43 | 1009.4 |
| 20260505235540 | 71 | 194 | 0.0 | 0.0 | 0.00 | 0.00 | 0.00 | 43 | 1009.5 |
| 20260505235018 | 71 | 83 | 0.0 | 0.0 | 0.00 | 0.00 | 0.00 | 42 | 1009.4 |
| 20260505234519 | 71 | 270 | 0.0 | 0.0 | 0.00 | 0.00 | 0.00 | 42 | 1009.4 |
| 20260505234038 | 71 | 215 | 0.0 | 0.0 | 0.00 | 0.00 | 0.00 | 42 | 1009.4 |
| 20260505233516 | 71 | 214 | 0.0 | 0.0 | 0.00 | 0.00 | 0.00 | 41 | 1009.5 |
| 20260505233015 | 71 | 236 | 0.0 | 0.0 | 0.00 | 0.00 | 0.00 | 41 | 1009.4 |
| 20260505232513 | 72 | 217 | 0.0 | 0.0 | 0.00 | 0.00 | 0.00 | 41 | 1009.4 |
| 20260505232032 | 72 | 129 | 0.0 | 0.0 | 0.00 | 0.00 | 0.00 | 41 | 1009.4 |
| 20260505231551 | 72 | 253 | 0.0 | 2.0 | 0.00 | 0.00 | 0.00 | 40 | 1009.4 |
| 20260505231029 | 72 | 262 | 0.0 | 2.0 | 0.00 | 0.00 | 0.00 | 40 | 1009.3 |
| 20260505230548 | 72 | 197 | 1.0 | 3.0 | 0.00 | 0.00 | 0.00 | 40 | 1009.4 |
| 20260505230020 | 72 | 207 | 1.0 | 3.0 | 0.00 | 0.00 | 0.00 | 40 | 1009.3 |
| 20260505225518 | 73 | 231 | 0.0 | 7.0 | 0.00 | 0.00 | 0.00 | 39 | 1009.2 |
| 20260505225036 | 73 | 212 | 0.0 | 7.0 | 0.00 | 0.00 | 0.00 | 39 | 1009.1 |
| 20260505224514 | 73 | 238 | 0.0 | 4.0 | 0.00 | 0.00 | 0.00 | 39 | 1009.0 |
| 20260505224031 | 73 | 221 | 1.0 | 5.0 | 0.00 | 0.00 | 0.00 | 40 | 1009.1 |
| 20260505223528 | 73 | 221 | 1.0 | 5.0 | 0.00 | 0.00 | 0.00 | 39 | 1009.0 |
| 20260505223025 | 73 | 221 | 0.0 | 4.0 | 0.00 | 0.00 | 0.00 | 39 | 1009.1 |
| 20260505222523 | 73 | 269 | 0.0 | 3.0 | 0.00 | 0.00 | 0.00 | 40 | 1009.0 |
| 20260505222041 | 73 | 229 | 0.0 | 3.0 | 0.00 | 0.00 | 0.00 | 40 | 1008.9 |
| 20260505221517 | 73 | 263 | 1.0 | 4.0 | 0.00 | 0.00 | 0.00 | 39 | 1009.0 |
| 20260505221035 | 73 | 238 | 1.0 | 4.0 | 0.00 | 0.00 | 0.00 | 39 | 1009.0 |
| 20260505220531 | 73 | 203 | 1.0 | 4.0 | 0.00 | 0.00 | 0.00 | 39 | 1009.0 |
| 20260505220026 | 73 | 176 | 0.0 | 5.0 | 0.00 | 0.00 | 0.00 | 39 | 1009.0 |
| 20260505215526 | 74 | 264 | 1.0 | 6.0 | 0.00 | 0.00 | 0.00 | 39 | 1008.9 |
| 20260505215025 | 74 | 243 | 0.0 | 6.0 | 0.00 | 0.00 | 0.00 | 38 | 1008.8 |
| 20260505214525 | 74 | 267 | 0.0 | 4.0 | 0.00 | 0.00 | 0.00 | 38 | 1008.8 |
| 20260505214024 | 74 | 266 | 1.0 | 6.0 | 0.00 | 0.00 | 0.00 | 37 | 1008.7 |
| 20260505213522 | 74 | 278 | 2.0 | 6.0 | 0.00 | 0.00 | 0.00 | 35 | 1008.7 |
| 20260505213021 | 74 | 248 | 1.0 | 7.0 | 0.00 | 0.00 | 0.00 | 34 | 1008.7 |
| 20260505212518 | 74 | 277 | 1.0 | 9.0 | 0.00 | 0.00 | 0.00 | 33 | 1008.6 |
| 20260505212015 | 74 | 208 | 4.0 | 9.0 | 0.00 | 0.00 | 0.00 | 33 | 1008.6 |
| 20260505211527 | 74 | 55 | 3.0 | 7.0 | 0.00 | 0.00 | 0.00 | 32 | 1008.5 |
| 20260505211023 | 74 | 246 | 2.0 | 6.0 | 0.00 | 0.00 | 0.00 | 33 | 1008.4 |
| 20260505210540 | 75 | 207 | 0.0 | 6.0 | 0.00 | 0.00 | 0.00 | 33 | 1008.4 |
| 20260505210013 | 75 | 212 | 1.0 | 5.0 | 0.00 | 0.00 | 0.00 | 33 | 1008.4 |
| 20260505205530 | 75 | 192 | 1.0 | 7.0 | 0.00 | 0.00 | 0.00 | 32 | 1008.3 |
| 20260505205027 | 75 | 345 | 1.0 | 7.0 | 0.00 | 0.00 | 0.00 | 32 | 1008.3 |
| 20260505204524 | 75 | 82 | 1.0 | 5.0 | 0.00 | 0.00 | 0.00 | 31 | 1008.4 |
| 20260505204021 | 76 | 290 | 0.0 | 5.0 | 0.00 | 0.00 | 0.00 | 31 | 1008.3 |
| 20260505203519 | 76 | 219 | 1.0 | 8.0 | 0.00 | 0.00 | 0.00 | 32 | 1008.3 |
| 20260505203018 | 77 | 284 | 0.0 | 8.0 | 0.00 | 0.00 | 0.00 | 31 | 1008.3 |
| 20260505202516 | 78 | 51 | 1.0 | 8.0 | 0.00 | 0.00 | 0.00 | 30 | 1008.4 |
| 20260505202015 | 78 | 219 | 2.0 | 5.0 | 0.00 | 0.00 | 0.00 | 31 | 1008.3 |
| 20260505201533 | 77 | 219 | 2.0 | 6.0 | 0.00 | 0.00 | 0.00 | 31 | 1008.3 |
| 20260505201029 | 77 | 288 | 2.0 | 6.0 | 0.00 | 0.00 | 0.00 | 31 | 1008.2 |
| 20260505200529 | 77 | 236 | 1.0 | 5.0 | 0.00 | 0.00 | 0.00 | 32 | 1008.2 |
| 20260505200023 | 77 | 81 | 1.0 | 8.0 | 0.00 | 0.00 | 0.00 | 32 | 1008.0 |
| 20260505195521 | 77 | 253 | 3.0 | 8.0 | 0.00 | 0.00 | 0.00 | 31 | 1008.3 |
| 20260505195040 | 77 | 314 | 4.0 | 8.0 | 0.00 | 0.00 | 0.00 | 31 | 1008.3 |
| 20260505194539 | 77 | 259 | 2.0 | 9.0 | 0.00 | 0.00 | 0.00 | 31 | 1008.3 |
| 20260505194016 | 77 | 269 | 3.0 | 9.0 | 0.00 | 0.00 | 0.00 | 31 | 1008.5 |
| 20260505193515 | 77 | 267 | 2.0 | 5.0 | 0.00 | 0.00 | 0.00 | 32 | 1008.3 |
| 20260505193014 | 76 | 229 | 1.0 | 5.0 | 0.00 | 0.00 | 0.00 | 32 | 1008.6 |
| 20260505192513 | 76 | 214 | 3.0 | 11.0 | 0.00 | 0.00 | 0.00 | 32 | 1008.8 |
| 20260505192031 | 76 | 239 | 4.0 | 11.0 | 0.00 | 0.00 | 0.00 | 32 | 1008.9 |
| 20260505191551 | 76 | 242 | 2.0 | 7.0 | 0.00 | 0.00 | 0.00 | 32 | 1008.8 |
| 20260505191027 | 76 | 197 | 1.0 | 7.0 | 0.00 | 0.00 | 0.00 | 33 | 1008.8 |
| 20260505190524 | 76 | 248 | 1.0 | 8.0 | 0.00 | 0.00 | 0.00 | 34 | 1008.8 |
| 20260505190040 | 76 | 191 | 3.0 | 8.0 | 0.00 | 0.00 | 0.00 | 33 | 1009.0 |
| 20260505185538 | 76 | 207 | 3.0 | 13.0 | 0.00 | 0.00 | 0.00 | 33 | 1009.2 |
| 20260505184518 | 76 | 240 | 1.0 | 6.0 | 0.00 | 0.00 | 0.00 | 35 | 1009.4 |
| 20260505184018 | 76 | 263 | 3.0 | 7.0 | 0.00 | 0.00 | 0.00 | 36 | 1009.4 |
| 20260505183518 | 75 | 236 | 2.0 | 7.0 | 0.00 | 0.00 | 0.00 | 36 | 1009.4 |
| 20260505183019 | 75 | 250 | 2.0 | 8.0 | 0.00 | 0.00 | 0.00 | 35 | 1009.4 |
| 20260505182540 | 76 | 215 | 2.0 | 7.0 | 0.00 | 0.00 | 0.00 | 35 | 1009.4 |
| 20260505182020 | 77 | 242 | 1.0 | 7.0 | 0.00 | 0.00 | 0.00 | 33 | 1009.4 |
| 20260505181535 | 77 | 239 | 1.0 | 8.0 | 0.00 | 0.00 | 0.00 | 32 | 1009.4 |
| 20260505181014 | 77 | 236 | 3.0 | 8.0 | 0.00 | 0.00 | 0.00 | 31 | 1009.6 |
| 20260505180515 | 76 | 308 | 2.0 | 10.0 | 0.00 | 0.00 | 0.00 | 32 | 1009.6 |
| 20260505180049 | 76 | 253 | 2.0 | 10.0 | 0.00 | 0.00 | 0.00 | 33 | 1009.6 |
| 20260505175527 | 76 | 277 | 4.0 | 10.0 | 0.00 | 0.00 | 0.00 | 33 | 1009.9 |
| 20260505175026 | 76 | 50 | 2.0 | 10.0 | 0.00 | 0.00 | 0.00 | 33 | 1009.7 |
| 20260505174525 | 76 | 113 | 4.0 | 12.0 | 0.00 | 0.00 | 0.00 | 33 | 1009.7 |
| 20260505174044 | 76 | 226 | 2.0 | 12.0 | 0.00 | 0.00 | 0.00 | 33 | 1009.6 |
| 20260505173521 | 76 | 63 | 2.0 | 11.0 | 0.00 | 0.00 | 0.00 | 35 | 1009.6 |
| 20260505173039 | 75 | 212 | 1.0 | 11.0 | 0.00 | 0.00 | 0.00 | 36 | 1009.7 |
| 20260505172537 | 75 | 266 | 4.0 | 10.0 | 0.00 | 0.00 | 0.00 | 34 | 1009.6 |
| 20260505172035 | 75 | 249 | 3.0 | 10.0 | 0.00 | 0.00 | 0.00 | 34 | 1009.7 |
| 20260505171534 | 75 | 245 | 4.0 | 10.0 | 0.00 | 0.00 | 0.00 | 34 | 1009.8 |
| 20260505171050 | 76 | 338 | 4.0 | 9.0 | 0.00 | 0.00 | 0.00 | 33 | 1009.8 |
| 20260505170526 | 75 | 234 | 2.0 | 10.0 | 0.00 | 0.00 | 0.00 | 35 | 1009.7 |
| 20260505170023 | 75 | 246 | 5.0 | 10.0 | 0.00 | 0.00 | 0.00 | 35 | 1010.0 |
| 20260505165523 | 75 | 266 | 2.0 | 10.0 | 0.00 | 0.00 | 0.00 | 37 | 1010.0 |
| 20260505165024 | 75 | 250 | 3.0 | 10.0 | 0.00 | 0.00 | 0.00 | 37 | 1010.0 |
| 20260505164544 | 75 | 219 | 3.0 | 12.0 | 0.00 | 0.00 | 0.00 | 37 | 1010.0 |
| 20260505164022 | 75 | 78 | 2.0 | 12.0 | 0.00 | 0.00 | 0.00 | 38 | 1010.2 |
| 20260505163521 | 75 | 231 | 4.0 | 9.0 | 0.00 | 0.00 | 0.00 | 38 | 1010.0 |
| 20260505163019 | 75 | 255 | 4.0 | 9.0 | 0.00 | 0.00 | 0.00 | 39 | 1010.2 |
| 20260505162517 | 75 | 193 | 1.0 | 9.0 | 0.00 | 0.00 | 0.00 | 40 | 1010.2 |
| 20260505162014 | 74 | 208 | 2.0 | 9.0 | 0.00 | 0.00 | 0.00 | 40 | 1010.4 |
| 20260505161531 | 74 | 221 | 1.0 | 7.0 | 0.00 | 0.00 | 0.00 | 41 | 1010.4 |
| 20260505161028 | 74 | 233 | 1.0 | 10.0 | 0.00 | 0.00 | 0.00 | 42 | 1010.4 |
| 20260505160525 | 73 | 249 | 5.0 | 10.0 | 0.00 | 0.00 | 0.00 | 42 | 1010.6 |
| 20260505153022 | 73 | 288 | 1.0 | 8.0 | 0.00 | 0.00 | 0.00 | 43 | 1010.8 |
| 20260505152521 | 73 | 280 | 2.0 | 8.0 | 0.00 | 0.00 | 0.00 | 43 | 1010.9 |
| 20260505152040 | 73 | 240 | 1.0 | 8.0 | 0.00 | 0.00 | 0.00 | 45 | 1010.8 |
| 20260505151538 | 72 | 233 | 2.0 | 8.0 | 0.00 | 0.00 | 0.00 | 45 | 1010.8 |
| 20260505151016 | 72 | 266 | 3.0 | 8.0 | 0.00 | 0.00 | 0.00 | 44 | 1010.9 |
| 20260505150514 | 72 | 219 | 0.0 | 4.0 | 0.00 | 0.00 | 0.00 | 46 | 1010.9 |
| 20260505140522 | 69 | 259 | 1.0 | 4.0 | 0.00 | 0.00 | 0.00 | 47 | 1011.2 |
| 20260505125026 | 65 | 174 | 1.0 | 5.0 | 0.00 | 0.00 | 0.00 | 56 | 1011.3 |
| 20260505124523 | 64 | 287 | 2.0 | 4.0 | 0.00 | 0.00 | 0.00 | 56 | 1011.2 |
| 20260505124021 | 64 | 252 | 0.0 | 3.0 | 0.00 | 0.00 | 0.00 | 57 | 1011.0 |
| 20260505123519 | 64 | 240 | 0.0 | 4.0 | 0.00 | 0.00 | 0.00 | 56 | 1011.0 |
| 20260505123018 | 64 | 269 | 1.0 | 4.0 | 0.00 | 0.00 | 0.00 | 56 | 1011.0 |
| 20260505122516 | 64 | 229 | 1.0 | 4.0 | 0.00 | 0.00 | 0.00 | 56 | 1010.9 |
| 20260505122015 | 64 | 263 | 0.0 | 5.0 | 0.00 | 0.00 | 0.00 | 56 | 1011.1 |
| 20260505121514 | 64 | 262 | 1.0 | 6.0 | 0.00 | 0.00 | 0.00 | 56 | 1011.0 |
| 20260505121033 | 63 | 250 | 1.0 | 6.0 | 0.00 | 0.00 | 0.00 | 57 | 1011.0 |
| 20260505120531 | 63 | 201 | 1.0 | 4.0 | 0.00 | 0.00 | 0.00 | 57 | 1011.1 |
| 20260505120024 | 63 | 222 | 0.0 | 4.0 | 0.00 | 0.00 | 0.00 | 58 | 1011.0 |
| 20260505115524 | 62 | 236 | 1.0 | 3.0 | 0.00 | 0.00 | 0.00 | 59 | 1011.0 |
| 20260505115043 | 62 | 285 | 1.0 | 5.0 | 0.00 | 0.00 | 0.00 | 59 | 1011.0 |
| 20260505114542 | 62 | 233 | 0.0 | 5.0 | 0.00 | 0.00 | 0.00 | 60 | 1011.0 |
| 20260505114019 | 62 | 238 | 0.0 | 2.0 | 0.00 | 0.00 | 0.00 | 61 | 1011.2 |
| 20260505113519 | 61 | 217 | 0.0 | 1.0 | 0.00 | 0.00 | 0.00 | 61 | 1011.1 |
| 20260505113018 | 61 | 337 | 0.0 | 2.0 | 0.00 | 0.00 | 0.00 | 62 | 1011.0 |
| 20260505112515 | 61 | 263 | 0.0 | 4.0 | 0.00 | 0.00 | 0.00 | 62 | 1010.8 |
| 20260505112014 | 60 | 235 | 0.0 | 4.0 | 0.00 | 0.00 | 0.00 | 63 | 1010.8 |
| 20260505111513 | 60 | 72 | 0.0 | 2.0 | 0.00 | 0.00 | 0.00 | 63 | 1010.8 |
| 20260505111012 | 60 | 235 | 0.0 | 3.0 | 0.00 | 0.00 | 0.00 | 64 | 1010.8 |
| 20260505110511 | 60 | 219 | 1.0 | 2.0 | 0.00 | 0.00 | 0.00 | 65 | 1010.8 |
| 20260505102023 | 57 | 282 | 0.0 | 1.0 | 0.00 | 0.00 | 0.00 | 68 | 1010.6 |
| 20260505101524 | 57 | 285 | 0.0 | 1.0 | 0.00 | 0.00 | 0.00 | 68 | 1010.6 |
| 20260505101046 | 57 | 253 | 0.0 | 1.0 | 0.00 | 0.00 | 0.00 | 67 | 1010.4 |
| 20260505100524 | 58 | 253 | 0.0 | 1.0 | 0.00 | 0.00 | 0.00 | 67 | 1010.4 |
| 20260505100019 | 58 | 253 | 0.0 | 1.0 | 0.00 | 0.00 | 0.00 | 66 | 1010.3 |
| 20260505095519 | 58 | 252 | 0.0 | 1.0 | 0.00 | 0.00 | 0.00 | 66 | 1010.3 |
| 20260505095018 | 58 | 253 | 0.0 | 1.0 | 0.00 | 0.00 | 0.00 | 66 | 1010.3 |
| 20260505094516 | 58 | 85 | 0.0 | 1.0 | 0.00 | 0.00 | 0.00 | 65 | 1010.3 |
| 20260505094015 | 58 | 229 | 0.0 | 0.0 | 0.00 | 0.00 | 0.00 | 65 | 1010.3 |
| 20260505093534 | 58 | 230 | 0.0 | 0.0 | 0.00 | 0.00 | 0.00 | 64 | 1010.3 |
| 20260505093012 | 58 | 229 | 0.0 | 1.0 | 0.00 | 0.00 | 0.00 | 64 | 1010.2 |
| 20260505092532 | 58 | 229 | 0.0 | 1.0 | 0.00 | 0.00 | 0.00 | 65 | 1010.1 |
| 20260505092050 | 58 | 233 | 0.0 | 1.0 | 0.00 | 0.00 | 0.00 | 64 | 1010.1 |
| 20260505091527 | 58 | 246 | 0.0 | 3.0 | 0.00 | 0.00 | 0.00 | 64 | 1010.2 |
| 20260505091041 | 58 | 245 | 0.0 | 4.0 | 0.00 | 0.00 | 0.00 | 64 | 1010.3 |
| 20260505090519 | 58 | 281 | 2.0 | 4.0 | 0.00 | 0.00 | 0.00 | 65 | 1010.3 |
| 20260505090012 | 58 | 221 | 1.0 | 4.0 | 0.00 | 0.00 | 0.00 | 67 | 1010.3 |
| 20260505085512 | 57 | 19 | 0.0 | 2.0 | 0.00 | 0.00 | 0.00 | 69 | 1010.4 |
| 20260505085013 | 57 | 263 | 0.0 | 3.0 | 0.00 | 0.00 | 0.00 | 69 | 1010.3 |
| 20260505084514 | 57 | 284 | 0.0 | 3.0 | 0.00 | 0.00 | 0.00 | 70 | 1010.3 |
| 20260505084013 | 57 | 243 | 0.0 | 5.0 | 0.00 | 0.00 | 0.00 | 69 | 1010.3 |
| 20260505083514 | 57 | 210 | 1.0 | 5.0 | 0.00 | 0.00 | 0.00 | 68 | 1010.3 |
| 20260505083015 | 55 | 262 | 2.0 | 5.0 | 0.00 | 0.00 | 0.00 | 68 | 1010.3 |
| 20260505082511 | 54 | 248 | 0.0 | 2.0 | 0.00 | 0.00 | 0.00 | 67 | 1010.4 |
| 20260505082029 | 53 | 155 | 0.0 | 1.0 | 0.00 | 0.00 | 0.00 | 65 | 1010.4 |
| 20260505081528 | 54 | 158 | 0.0 | 1.0 | 0.00 | 0.00 | 0.00 | 65 | 1010.2 |
| 20260505081029 | 54 | 116 | 0.0 | 1.0 | 0.00 | 0.00 | 0.00 | 65 | 1010.2 |
| 20260505080527 | 54 | 146 | 0.0 | 1.0 | 0.00 | 0.00 | 0.00 | 64 | 1010.2 |
| 20260505080022 | 54 | 208 | 0.0 | 1.0 | 0.00 | 0.00 | 0.00 | 63 | 1010.2 |
| 20260505075540 | 54 | 127 | 0.0 | 1.0 | 0.00 | 0.00 | 0.00 | 63 | 1010.1 |
| 20260505075036 | 55 | 214 | 0.0 | 1.0 | 0.00 | 0.00 | 0.00 | 61 | 1010.0 |
| 20260505074512 | 55 | 215 | 0.0 | 1.0 | 0.00 | 0.00 | 0.00 | 60 | 1010.1 |
| 20260505074029 | 56 | 86 | 0.0 | 1.0 | 0.00 | 0.00 | 0.00 | 58 | 1010.1 |
| 20260505073528 | 58 | 82 | 0.0 | 1.0 | 0.00 | 0.00 | 0.00 | 58 | 1010.2 |
| 20260505073028 | 59 | 81 | 0.0 | 1.0 | 0.00 | 0.00 | 0.00 | 60 | 1010.0 |
| 20260505072548 | 59 | 139 | 0.0 | 2.0 | 0.00 | 0.00 | 0.00 | 59 | 1010.1 |
| 20260505072047 | 59 | 219 | 0.0 | 2.0 | 0.00 | 0.00 | 0.00 | 59 | 1010.1 |
| 20260505071547 | 59 | 226 | 0.0 | 3.0 | 0.00 | 0.00 | 0.00 | 59 | 1010.1 |
| 20260505071026 | 59 | 276 | 1.0 | 3.0 | 0.00 | 0.00 | 0.00 | 59 | 1010.1 |
| 20260505070526 | 59 | 212 | 1.0 | 2.0 | 0.00 | 0.00 | 0.00 | 59 | 1010.0 |
| 20260505070022 | 59 | 225 | 0.0 | 2.0 | 0.00 | 0.00 | 0.00 | 59 | 1010.1 |